Flag for Germany Weather past 2 weeks in Aalen, Baden-Württemberg, Germany

Now
54 °F

Low clouds.


Feels Like: 54 °F
Forecast: 51 / 67 °F
Wind: 3 mph from Northwest

Location: Stoetten

Current Time: Sep 2, 2014 at 11:33:14 AM

Latest Report: Sep 2, 2014 at 11:00 AM


Visibility: 5 mi

Pressure: 30.15 "Hg

Humidity: 88%

Dew point: 51 °F

Location of AalenLocation

Historic Weather in Aalen — Graph

°F

Aalen temperature yesterday

Maximum temperature yesterday: 53 °F (at 4:00 PM)
Minimum temperature yesterday: 48 °F (at 7:00 AM)
Average temperature yesterday: 50 °F

Past Weeks' High & Low Weather Summary

 TemperatureHumidityPressure
High68 °F (Aug 28, 6:00 PM)100% (Aug 24, 5:00 AM)30.18 "Hg (Aug 24, 5:00 AM)
Low44 °F (Aug 24, 3:00 AM)46% (Aug 21, 2:00 PM)29.69 "Hg (Aug 26, 8:00 AM)
Average55 °F82%30.01 "Hg
* Reported Aug 18 10:00 AM — Sep 2 10:00 AM, Aalen, Weather by CustomWeather, © 2014

Note: Actual official high and low records may vary slightly from our data, if they occured in-between our weather recording intervals... More about our weather records

Advertising

Aalen weather history for previous 24 hours

 ConditionsComfort  
Time TempWeatherWind HumidityBarometerVisibility
10:00 AM
Sep 2
53 °FFog.3 mph92%30.15 "Hg4 mi
9:00 AM51 °FFog.2 mph94%30.15 "Hg4 mi
8:00 AM50 °FOvercast.3 mph96%30.16 "Hg3 mi
7:00 AM49 °FOvercast.2 mph97%30.16 "Hg5 mi
6:00 AM50 °FOvercast.2 mph97%30.15 "Hg5 mi
5:00 AM50 °FFog.2 mph97%30.15 "Hg2 mi
4:00 AM50 °FFog.3 mph97%30.15 "Hg2 mi
3:00 AM50 °FFog.3 mph98%30.16 "Hg1 mi
2:00 AM50 °FFog.3 mph97%30.16 "Hg2 mi
1:00 AM50 °FFog.2 mph97%30.17 "Hg2 mi
12:00 AM51 °FFog.3 mph97%30.17 "Hg2 mi
11:00 PM
Sep 1
51 °FFog.3 mph94%30.18 "Hg4 mi
10:00 PM51 °FFog.5 mph94%30.18 "Hg4 mi
9:00 PM51 °FOvercast.2 mph93%30.18 "Hg16 mi
8:00 PM51 °FOvercast.3 mph94%30.16 "Hg12 mi
7:00 PM52 °FOvercast.3 mph91%30.15 "Hg12 mi
6:00 PM53 °FOvercast.3 mph93%30.15 "Hg11 mi
5:00 PM51 °FLight rain. Low clouds.3 mph93%30.16 "Hg11 mi
4:00 PM53 °FLow clouds.3 mph87%30.15 "Hg11 mi
3:00 PM52 °FLow clouds.2 mph92%30.15 "Hg7 mi
2:00 PM51 °FLow clouds.3 mph96%30.15 "Hg4 mi
1:00 PM49 °FLight rain. Low clouds.5 mph98%30.16 "Hg2 mi
12:00 PM50 °FLow clouds.5 mph95%30.14 "Hg4 mi
11:00 AM51 °FLow clouds.6 mph97%30.13 "Hg3 mi
Weather by CustomWeather, © 2014

See weather overviewHow to use our weather pages